Location: Unspecified
(0.0000°N, 0.0000°E)
Time: 16:18:18
(UTC+00:00)

Explorer 7 - Pass Details

Date: 23 November 2019
Orbit: 485 x 680 km, 50.3° (Epoch: 13 December)

Event Time Altitude Azimuth Distance (km) Brightness Sun altitude
Rises 06:15:29 0° 357° (N) 2,577 10.0 6.8°
Reaches altitude 10° 06:19:07 10° 32° (NNE) 1,670 9.5 7.7°
Maximum altitude 06:20:20 11° 52° (NE) 1,585 9.7 8.0°
Drops below altitude 10° 06:21:33 10° 71° (ENE) 1,661 10.2 8.3°
Sets 06:25:06 0° 106° (ESE) 2,538 12.6 9.1°
